Terminal Aerodrome Forecast
Issued by NWS Blacksburg, VA

Home | Current Version | Previous Version | Text Only | Print | Product List | Glossary On
Versions: 1 2 3 4 5 6 7 8 9 10 11 12 13 14 15 16 17 18 19 20 21 22 23 24 25 26 27 28 29 30 31 32 33 34 35 36 37 38 39 40 41
000
FTUS41 KRNK 180520
TAFLYH
TAF
KLYH 180520Z 1806/1906 28004KT P6SM BKN250
     FM181900 26003KT P6SM BKN120=

USA.gov is the U.S. government's official web portal to all federal, state and local government web resources and services.